WMT7M DTTJ-DTTA

Flight info

Callsign WMT7M
Flight time 0h 36m
Altitude 22000
Route BISKO1B BISKO A411 TUC
Aircraft A320/M-SDE3FGHIRWY/LB1

Departure

Time 2026-04-25 07:33
Airport Djerba Zarzis International Airport (DTTJ)

Arrival

Time 2026-04-25 08:10
Airport Tunis Carthage International Airport (DTTA)
Time Latitude Longitude Altitude Speed Heading
2026-04-25 07:17 33.87331 10.77865 26 ft 0 kts 178°
2026-04-25 07:26 33.87337 10.77865 23 ft 2 kts 178°
2026-04-25 07:26 33.87354 10.77864 27 ft 2 kts 178°
2026-04-25 07:26 33.87371 10.77863 27 ft 2 kts 199°
2026-04-25 07:27 33.87383 10.77875 27 ft 2 kts 269°
2026-04-25 07:27 33.87383 10.77872 28 ft 1 kts 269°
2026-04-25 07:27 33.87383 10.77871 28 ft 0 kts 269°
2026-04-25 07:31 33.87383 10.77850 25 ft 4 kts 269°
2026-04-25 07:31 33.87386 10.77804 23 ft 7 kts 277°
2026-04-25 07:31 33.87408 10.77741 24 ft 9 kts 318°
2026-04-25 07:31 33.87440 10.77726 24 ft 0 kts 348°
2026-04-25 07:32 33.87447 10.77724 23 ft 2 kts 348°
2026-04-25 07:32 33.87472 10.77718 23 ft 5 kts 348°
2026-04-25 07:32 33.87508 10.77707 26 ft 6 kts 338°
2026-04-25 07:32 33.87537 10.77646 25 ft 25 kts 277°
2026-04-25 07:33 33.87530 10.77121 21 ft 97 kts 268°
2026-04-25 07:33 33.87502 10.76077 22 ft 151 kts 267°
2026-04-25 07:33 33.87474 10.74695 569 ft 172 kts 272°
2026-04-25 07:33 33.87936 10.73373 1329 ft 178 kts 322°
2026-04-25 07:34 33.89108 10.72925 2133 ft 189 kts 10°
2026-04-25 07:34 33.90311 10.73666 2802 ft 207 kts 43°
2026-04-25 07:34 33.91448 10.74835 3402 ft 225 kts 42°
2026-04-25 07:34 33.92720 10.76103 3885 ft 249 kts 34°
2026-04-25 07:35 33.94394 10.76746 4668 ft 259 kts
2026-04-25 07:35 33.96204 10.76666 5676 ft 262 kts 353°
2026-04-25 07:35 33.98014 10.76350 6654 ft 265 kts 351°
2026-04-25 07:35 33.99843 10.75992 7533 ft 269 kts 351°
2026-04-25 07:36 34.01711 10.75660 8429 ft 273 kts 352°
2026-04-25 07:36 34.03611 10.75374 9327 ft 277 kts 353°
2026-04-25 07:36 34.05546 10.75127 9840 ft 281 kts 353°
2026-04-25 07:36 34.07495 10.74906 9987 ft 281 kts 354°
2026-04-25 07:37 34.09443 10.74707 10016 ft 283 kts 354°
2026-04-25 07:37 34.11487 10.74510 10017 ft 295 kts 355°
2026-04-25 07:37 34.13481 10.74321 10018 ft 283 kts 354°
2026-04-25 07:37 34.15434 10.74136 10021 ft 281 kts 355°
2026-04-25 07:38 34.17379 10.73949 10027 ft 280 kts 354°
2026-04-25 07:38 34.18667 10.73823 10028 ft 280 kts 354°
2026-04-25 07:38 34.21267 10.73570 10030 ft 280 kts 354°
2026-04-25 07:38 34.22555 10.73444 10032 ft 280 kts 354°
2026-04-25 07:39 34.24499 10.73252 10029 ft 280 kts 354°
2026-04-25 07:39 34.26442 10.73059 10038 ft 280 kts 354°
2026-04-25 07:39 34.28384 10.72868 10033 ft 280 kts 354°
2026-04-25 07:39 34.30325 10.72684 10032 ft 280 kts 355°
2026-04-25 07:40 34.32269 10.72534 10030 ft 280 kts 355°
2026-04-25 07:40 34.34214 10.72398 10031 ft 280 kts 356°
2026-04-25 07:40 34.36161 10.72265 10032 ft 280 kts 356°
2026-04-25 07:40 34.38106 10.72132 10032 ft 280 kts 356°
2026-04-25 07:41 34.40052 10.71999 10032 ft 280 kts 356°
2026-04-25 07:41 34.41997 10.71861 10032 ft 280 kts 355°
2026-04-25 07:41 34.43942 10.71718 10032 ft 280 kts 355°
2026-04-25 07:41 34.45883 10.71577 10024 ft 280 kts 356°
2026-04-25 07:42 34.47829 10.71426 10023 ft 280 kts 355°
2026-04-25 07:42 34.49771 10.71237 10021 ft 280 kts 354°
2026-04-25 07:42 34.51710 10.71027 10020 ft 280 kts 354°
2026-04-25 07:42 34.53648 10.70811 10020 ft 279 kts 354°
2026-04-25 07:43 34.55582 10.70597 10017 ft 279 kts 354°
2026-04-25 07:43 34.58507 10.70280 10014 ft 279 kts 354°
2026-04-25 07:43 34.62378 10.69872 10011 ft 279 kts 354°
2026-04-25 07:43 34.66246 10.69464 10010 ft 279 kts 354°
2026-04-25 07:44 34.70118 10.69055 10010 ft 279 kts 354°
2026-04-25 07:44 34.74001 10.69040 10011 ft 280 kts
2026-04-25 07:44 34.77889 10.69289 10013 ft 280 kts
2026-04-25 07:44 34.81786 10.69535 10011 ft 280 kts
2026-04-25 07:45 34.85680 10.69780 10013 ft 280 kts
2026-04-25 07:45 34.89623 10.70029 10018 ft 280 kts
2026-04-25 07:45 34.93515 10.70276 10021 ft 280 kts
2026-04-25 07:45 34.97406 10.70518 10025 ft 280 kts
2026-04-25 07:46 35.01304 10.70728 10030 ft 280 kts
2026-04-25 07:46 35.05202 10.70931 10032 ft 281 kts
2026-04-25 07:46 35.09118 10.71138 10035 ft 281 kts
2026-04-25 07:46 35.13028 10.71352 10034 ft 281 kts
2026-04-25 07:47 35.16940 10.71556 10031 ft 281 kts
2026-04-25 07:47 35.20854 10.71765 10032 ft 281 kts
2026-04-25 07:47 35.24764 10.71979 10032 ft 281 kts
2026-04-25 07:47 35.28678 10.72191 10037 ft 282 kts
2026-04-25 07:48 35.32608 10.72399 10034 ft 283 kts
2026-04-25 07:48 35.36544 10.72611 10034 ft 283 kts
2026-04-25 07:48 35.40476 10.72823 10034 ft 283 kts
2026-04-25 07:48 35.44411 10.73036 10030 ft 283 kts
2026-04-25 07:49 35.48345 10.73263 10028 ft 283 kts
2026-04-25 07:49 35.52280 10.73490 10023 ft 283 kts
2026-04-25 07:49 35.56215 10.73713 10022 ft 283 kts
2026-04-25 07:49 35.60148 10.73941 10015 ft 283 kts
2026-04-25 07:50 35.64080 10.74168 10012 ft 283 kts
2026-04-25 07:50 35.68009 10.74391 10010 ft 283 kts
2026-04-25 07:50 35.71936 10.74617 10010 ft 283 kts
2026-04-25 07:50 35.75861 10.74528 10009 ft 282 kts 348°
2026-04-25 07:51 35.79573 10.72907 10010 ft 284 kts 339°
2026-04-25 07:51 35.83277 10.71182 10010 ft 285 kts 340°
2026-04-25 07:51 35.86983 10.69465 10025 ft 285 kts 340°
2026-04-25 07:51 35.90687 10.67744 10022 ft 285 kts 340°
2026-04-25 07:52 35.94387 10.66018 10019 ft 285 kts 340°
2026-04-25 07:52 35.98092 10.64286 10017 ft 285 kts 340°
2026-04-25 07:52 36.01798 10.62554 10015 ft 284 kts 340°
2026-04-25 07:52 36.05497 10.60823 10013 ft 284 kts 340°
2026-04-25 07:53 36.09198 10.59090 10014 ft 284 kts 340°
2026-04-25 07:53 36.12906 10.57347 10009 ft 284 kts 340°
2026-04-25 07:53 36.16609 10.55601 10013 ft 285 kts 340°
2026-04-25 07:53 36.20309 10.53858 10013 ft 284 kts 340°
2026-04-25 07:54 36.24013 10.52115 10014 ft 285 kts 340°
2026-04-25 07:54 36.27723 10.50361 10017 ft 285 kts 339°
2026-04-25 07:54 36.31382 10.48608 10018 ft 284 kts 340°
2026-04-25 07:54 36.33231 10.47714 10020 ft 285 kts 339°
2026-04-25 07:55 36.35075 10.46822 10024 ft 285 kts 339°
2026-04-25 07:55 36.36930 10.45928 9921 ft 288 kts 339°
2026-04-25 07:55 36.38818 10.45022 9395 ft 293 kts 340°
2026-04-25 07:55 36.40730 10.44114 8902 ft 295 kts 340°
2026-04-25 07:56 36.42657 10.43209 8424 ft 297 kts 340°
2026-04-25 07:56 36.44598 10.42301 7949 ft 299 kts 340°
2026-04-25 07:56 36.46546 10.41388 7480 ft 300 kts 340°
2026-04-25 07:56 36.48500 10.40472 7018 ft 300 kts 340°
2026-04-25 07:57 36.50422 10.39570 6561 ft 290 kts 340°
2026-04-25 07:57 36.52271 10.38702 6079 ft 279 kts 340°
2026-04-25 07:57 36.54056 10.37861 5601 ft 270 kts 339°
2026-04-25 07:57 36.55790 10.37039 5129 ft 263 kts 339°
2026-04-25 07:58 36.57478 10.36239 4647 ft 257 kts 339°
2026-04-25 07:58 36.59139 10.35450 4158 ft 254 kts 339°
2026-04-25 07:58 36.60772 10.34676 3676 ft 249 kts 339°
2026-04-25 07:58 36.62381 10.33916 3205 ft 246 kts 339°
2026-04-25 07:59 36.63935 10.33182 3017 ft 226 kts 338°
2026-04-25 07:59 36.65308 10.32533 3014 ft 200 kts 339°
2026-04-25 07:59 36.66585 10.31927 3024 ft 195 kts 338°
2026-04-25 07:59 36.67823 10.31341 3040 ft 181 kts 338°
2026-04-25 08:00 36.68926 10.30820 3005 ft 161 kts 338°
2026-04-25 08:00 36.69942 10.30338 2857 ft 153 kts 338°
2026-04-25 08:00 36.70932 10.29867 2652 ft 152 kts 338°
2026-04-25 08:00 36.71908 10.29404 2413 ft 150 kts 338°
2026-04-25 08:01 36.72887 10.28937 2144 ft 152 kts 338°
2026-04-25 08:01 36.73872 10.28469 1931 ft 152 kts 337°
2026-04-25 08:01 36.74860 10.27999 1706 ft 152 kts 337°
2026-04-25 08:01 36.75829 10.27538 1583 ft 148 kts 337°
2026-04-25 08:02 36.76790 10.27081 1515 ft 148 kts 338°
2026-04-25 08:02 36.77748 10.26623 1515 ft 148 kts 338°
2026-04-25 08:02 36.78706 10.26167 1515 ft 147 kts 337°
2026-04-25 08:02 36.79658 10.25715 1510 ft 146 kts 338°
2026-04-25 08:03 36.80602 10.25266 1509 ft 145 kts 338°
2026-04-25 08:03 36.81543 10.24819 1511 ft 145 kts 338°
2026-04-25 08:03 36.82203 10.23898 1101 ft 151 kts 293°
2026-04-25 08:03 36.82819 10.22807 579 ft 155 kts 319°
2026-04-25 08:04 36.83785 10.22370 199 ft 146 kts 11°
2026-04-25 08:04 36.84739 10.22597 109 ft 135 kts 16°
2026-04-25 08:04 36.85654 10.22839 791 ft 139 kts 17°
2026-04-25 08:04 36.86632 10.23178 1463 ft 153 kts 13°
2026-04-25 08:05 36.87842 10.23394 1723 ft 193 kts
2026-04-25 08:05 36.89197 10.23619 1720 ft 197 kts
2026-04-25 08:05 36.90551 10.23909 1623 ft 197 kts 11°
2026-04-25 08:05 36.91901 10.24206 1547 ft 201 kts 11°
2026-04-25 08:06 36.93234 10.24496 1510 ft 183 kts 10°
2026-04-25 08:06 36.94413 10.24753 1511 ft 164 kts 11°
2026-04-25 08:06 36.95490 10.24978 1497 ft 152 kts
2026-04-25 08:06 36.96477 10.24670 1506 ft 147 kts 323°
2026-04-25 08:07 36.96962 10.23629 1509 ft 140 kts 268°
2026-04-25 08:07 36.96598 10.22580 1507 ft 134 kts 214°
2026-04-25 08:07 36.95721 10.22360 1518 ft 133 kts 169°
2026-04-25 08:07 36.94809 10.22492 1524 ft 131 kts 179°
2026-04-25 08:08 36.93893 10.22463 1477 ft 130 kts 181°
2026-04-25 08:08 36.92980 10.22401 1233 ft 132 kts 182°
2026-04-25 08:08 36.92060 10.22384 976 ft 133 kts 179°
2026-04-25 08:08 36.91159 10.22512 1012 ft 133 kts 159°
2026-04-25 08:09 36.90311 10.22983 1023 ft 133 kts 157°
2026-04-25 08:09 36.89426 10.23358 941 ft 136 kts 169°
2026-04-25 08:09 36.88467 10.23439 603 ft 141 kts 179°
2026-04-25 08:09 36.87582 10.23343 332 ft 139 kts 188°
2026-04-25 08:10 36.86639 10.23124 55 ft 137 kts 189°
2026-04-25 08:10 36.85821 10.22908 27 ft 85 kts 192°
2026-04-25 08:10 36.85516 10.22822 24 ft 23 kts 193°
2026-04-25 08:10 36.85360 10.22777 26 ft 24 kts 193°
2026-04-25 08:11 36.85194 10.22731 26 ft 21 kts 195°
2026-04-25 08:11 36.85069 10.22675 27 ft 20 kts 189°
2026-04-25 08:11 36.84942 10.22618 28 ft 15 kts 243°
2026-04-25 08:11 36.84964 10.22492 25 ft 16 kts 291°
2026-04-25 08:12 36.84918 10.22376 25 ft 18 kts 205°
2026-04-25 08:12 36.84881 10.22235 24 ft 20 kts 275°
2026-04-25 08:12 36.84889 10.22068 25 ft 12 kts 251°
2026-04-25 08:12 36.84809 10.22019 24 ft 15 kts 185°
2026-04-25 08:13 36.84708 10.21975 24 ft 12 kts 206°
2026-04-25 08:13 36.84651 10.21948 23 ft 1 kts 200°